[[{"header":{"parameterUnit":"m.s-1","parameterCategory":1,"la1":30.2991,"la2":30.254,"lo1":-89.0895,"lo2":-89.0444,"dy":0.0017,"dx":0.0017,"nx":28,"ny":28,"refTime":"2024-04-05T03:00:00:Z","depth":0,"parameterNumber":2,"parameterNumberName":"U-component_of_WINDS"},"data":[0,0,0,0,0,0,0,0,0,0,0,0,0,0,0,0,0,0,0,0,0,0,0,0,0,0,0,0,0,0,0,0,0,0,0,0,0,0,0,0,0,0,0,0,0,0,0,0,0,0,0,0,0,0,0,0,0,0,-1.7468,-1.7467,0,-1.737,-1.7369,-1.7367,-1.7272,-1.7271,-1.727,-1.7269,-1.7165,-1.7164,-1.7162,0,0,0,0,0,0,0,0,0,0,0,0,0,-1.7574,-1.7572,-1.7469,-1.7467,-1.7466,-1.737,-1.7369,-1.7367,-1.7273,-1.7271,-1.727,-1.7268,-1.7166,-1.7164,-1.7162,0,0,0,0,0,0,0,0,0,0,0,0,0,-1.7507,-1.7572,-1.7469,-1.7407,-1.7401,-1.737,-1.7368,-1.7367,-1.7273,-1.7271,-1.7269,-1.7268,-1.7166,-1.7164,-1.7162,-1.7183,0,0,-1.7154,-1.7153,0,0,0,0,0,0,0,0,-1.7511,-1.7503,-1.7418,-1.7412,-1.7404,-1.7332,-1.7367,-1.7305,-1.7273,-1.7321,-1.7269,-1.7267,-1.7222,-1.7215,-1.72,-1.7178,-1.7174,-1.7154,-1.7152,-1.7151,-1.7151,0,0,0,0,0,0,0,-1.7515,-1.7507,-1.7429,-1.7416,-1.7408,-1.7384,-1.7373,-1.7355,-1.7283,-1.7317,-1.731,-1.73,-1.7218,-1.7203,-1.7197,-1.7172,-1.7154,-1.7152,-1.715,-1.7149,-1.7162,-1.7164,0,0,0,0,0,0,-1.753,-1.7511,-1.7432,-1.7426,-1.7454,-1.7384,-1.7371,-1.7357,-1.7283,-1.727,-1.7301,-1.7296,-1.7208,-1.72,-1.7193,-1.7213,-1.7151,-1.7149,-1.7148,-1.7161,-1.7163,-1.7165,0,0,0,0,0,0,-1.7532,-1.7524,-1.7436,-1.7467,-1.7454,-1.7384,-1.7369,-1.7356,-1.734,-1.7271,-1.7257,-1.7299,-1.7206,-1.7196,-1.7186,-1.7208,-1.7148,-1.7146,-1.7159,-1.7161,-1.7164,-1.7253,0,0,0,0,0,0,-1.7536,-1.7525,-1.7533,-1.7468,-1.7453,-1.7432,-1.737,-1.7355,-1.7337,-1.7328,-1.7266,-1.7253,-1.7204,-1.7191,-1.7184,-1.7203,-1.7144,-1.7156,-1.716,-1.7163,-1.7248,-1.7259,-1.7268,0,0,0,0,0,-1.754,-1.7561,-1.7534,-1.7525,-1.7461,-1.7434,-1.7425,-1.7368,-1.7339,-1.7346,-1.7301,-1.7255,-1.7207,-1.719,-1.7182,-1.7201,-1.7155,-1.7159,-1.7163,-1.7243,-1.7257,-1.7268,0,0,0,0,0,0,-1.7629,-1.7551,-1.752,-1.7521,-1.7485,-1.7418,-1.7424,-1.7384,-1.7354,-1.7348,-1.7278,-1.7265,-1.7262,-1.7231,-1.7213,-1.7218,-1.7174,-1.7177,-1.7239,-1.725,-1.726,-1.7267,-1.7142,0,0,0,0,0,-1.765,-1.7635,-1.7567,-1.7575,-1.7558,-1.7495,-1.7481,-1.7441,-1.74,-1.7384,-1.7338,-1.73,-1.7276,-1.7261,-1.7236,-1.7243,-1.7228,-1.7253,-1.7263,-1.7271,-1.7274,-1.7275,-1.7286,-1.7178,-1.7178,-1.7178,0,0,-1.7691,-1.7646,-1.7641,-1.7592,-1.7559,-1.7544,-1.7482,-1.7469,-1.7458,-1.7381,-1.7369,-1.7335,-1.7287,-1.7287,-1.7284,-1.726,-1.73,-1.7276,-1.7284,-1.7281,-1.7281,-1.7291,-1.73,-1.7181,-1.7181,-1.718,0,0,-1.7758,-1.7723,-1.7725,-1.7694,-1.7646,-1.7603,-1.7605,-1.7544,-1.7518,-1.7505,-1.7448,-1.7433,-1.7393,-1.7361,-1.734,-1.7397,-1.7354,-1.7391,-1.7442,-1.7445,-1.7453,-1.746,-1.748,-1.7488,-1.7394,-1.7394,-1.7394,0,-1.7814,-1.7791,-1.7732,-1.7722,-1.7703,-1.7634,-1.7636,-1.7608,-1.7553,-1.7541,-1.7516,-1.7465,-1.7428,-1.7419,-1.7433,-1.7418,-1.7417,-1.7397,-1.7457,-1.7463,-1.7469,-1.7487,-1.7495,-1.7399,-1.7399,-1.7398,-1.7398,0,-1.7863,-1.7848,-1.7855,-1.7806,-1.7786,-1.7783,-1.7723,-1.7711,-1.7673,-1.7633,-1.7621,-1.7575,-1.7539,-1.7534,-1.7496,-1.7519,-1.7506,-1.747,-1.7424,-1.7485,-1.7501,-1.7508,-1.7406,-1.7404,-1.7403,-1.7402,0,0,-1.7982,-1.7901,-1.7905,-1.7881,-1.7823,-1.781,-1.7804,-1.7769,-1.776,-1.7725,-1.7718,-1.7686,-1.7653,-1.7629,-1.7587,-1.759,-1.7638,-1.7553,-1.7551,-1.757,-1.7661,-1.7688,-1.7697,-1.7609,-1.761,-1.7611,-1.7664,0,-1.8039,-1.8024,-1.7971,-1.7972,-1.7957,-1.7892,-1.7886,-1.785,-1.7814,-1.7795,-1.7754,-1.7733,-1.7691,-1.7676,-1.7676,-1.7632,-1.7655,-1.7628,-1.7601,-1.76,-1.7614,-1.7705,-1.7734,-1.7786,-1.767,-1.7671,-1.7672,0,-1.8103,-1.8074,-1.8073,-1.8016,-1.8008,-1.8004,-1.7968,-1.7952,-1.791,-1.7883,-1.7857,-1.7811,-1.78,-1.7759,-1.7743,-1.7726,-1.7712,-1.7689,-1.769,-1.7684,-1.7639,-1.7702,-1.7802,-1.781,-1.7681,-1.7681,-1.768,0,-1.819,-1.815,-1.8145,-1.8127,-1.8061,-1.8059,-1.8031,-1.7987,-1.797,-1.7939,-1.7927,-1.7895,-1.7878,-1.7854,-1.78,-1.7775,-1.779,-1.7744,-1.7767,-1.7769,-1.7772,-1.7772,-1.7871,-1.7765,-1.7765,-1.7764,-1.7764,0,-1.8259,-1.8261,-1.8183,-1.818,-1.818,-1.8119,-1.8121,-1.8087,-1.8049,-1.8037,-1.7979,-1.797,-1.79,-1.7882,-1.784,-1.7833,-1.7826,-1.7803,-1.7792,-1.7808,-1.7811,-1.7797,-1.7792,-1.7766,-1.7766,-1.7766,-1.7765,0,-1.8356,-1.8304,-1.8293,-1.8232,-1.8217,-1.822,-1.8167,-1.8161,-1.8121,-1.8108,-1.8101,-1.8039,-1.8015,-1.796,-1.7921,-1.7892,-1.7896,-1.7876,-1.7911,-1.7904,-1.7929,-1.7928,-1.8022,-1.8031,-1.792,-1.7921,-1.7922,0,-1.8403,-1.8403,-1.8342,-1.8331,-1.8306,-1.8288,-1.8271,-1.8211,-1.8195,-1.8148,-1.8147,-1.8119,-1.8094,-1.8059,-1.801,-1.798,-1.7958,-1.7993,-1.7953,-1.7969,-1.7958,-1.7958,-1.7958,-1.8002,-1.8003,-1.8004,-1.8005,0,-1.8492,-1.8466,-1.8444,-1.8413,-1.8394,-1.8366,-1.8335,-1.8329,-1.8262,-1.8247,-1.8223,-1.8203,-1.8164,-1.8137,-1.81,-1.807,-1.8027,-1.8019,-1.8022,-1.8038,-1.8059,-1.8048,-1.7934,-1.8016,-1.8015,-1.8014,-1.8014,-1.8013,-1.8565,-1.8562,-1.8519,-1.8496,-1.8467,-1.844,-1.8431,-1.8391,-1.837,-1.8334,-1.83,-1.828,-1.8237,-1.8183,-1.8157,-1.8139,-1.8117,-1.8122,-1.8123,-1.8125,-1.8133,-1.8062,-1.8132,-1.8132,-1.8131,-1.8131,-1.8131,0,-1.865,-1.862,-1.8599,-1.8559,-1.8541,-1.8502,-1.8467,-1.8454,-1.8436,-1.8401,-1.8378,-1.835,-1.8323,-1.8273,-1.8242,-1.8238,-1.8217,-1.8231,-1.8231,-1.8225,-1.8154,-1.8154,-1.8249,-1.8249,-1.8249,-1.8249,-1.8249,-1.8249,-1.8693,-1.8686,-1.8656,-1.8635,-1.8604,-1.8583,-1.8566,-1.8541,-1.8512,-1.8484,-1.8462,-1.843,-1.8388,-1.8354,-1.8328,-1.8314,-1.8305,-1.8326,-1.8306,-1.8241,-1.8229,-1.8219,-1.8218,-1.8325,-1.8325,-1.8377,-1.8378,-1.8378]},{"header":{"parameterUnit":"m.s-1","parameterCategory":1,"la1":30.2991,"la2":30.254,"lo1":-89.0895,"lo2":-89.0444,"dy":0.0017,"dx":0.0017,"nx":28,"ny":28,"refTime":"2024-04-05T03:00:00:Z","depth":0,"parameterNumber":3,"parameterNumberName":"V-component_of_WINDS"},"data":[0,0,0,0,0,0,0,0,0,0,0,0,0,0,0,0,0,0,0,0,0,0,0,0,0,0,0,0,0,0,0,0,0,0,0,0,0,0,0,0,0,0,0,0,0,0,0,0,0,0,0,0,0,0,0,0,0,0,2.5572,2.5572,0,2.5594,2.5594,2.5595,2.5605,2.5605,2.5605,2.5605,2.5626,2.5626,2.5627,0,0,0,0,0,0,0,0,0,0,0,0,0,2.5537,2.5538,2.5572,2.5572,2.5573,2.5594,2.5594,2.5595,2.5605,2.5605,2.5605,2.5605,2.5625,2.5626,2.5627,0,0,0,0,0,0,0,0,0,0,0,0,0,2.5555,2.5538,2.5572,2.5581,2.5582,2.5594,2.5594,2.5595,2.5605,2.5605,2.5605,2.5605,2.5625,2.5626,2.5627,2.5631,0,0,2.5629,2.563,0,0,0,0,0,0,0,0,2.5554,2.5556,2.5579,2.558,2.5581,2.5597,2.5589,2.5607,2.5605,2.5596,2.5605,2.5605,2.5616,2.5617,2.5621,2.5632,2.5633,2.5629,2.563,2.563,2.563,0,0,0,0,0,0,0,2.5553,2.5555,2.5581,2.5579,2.5581,2.5583,2.5585,2.5593,2.5606,2.5597,2.5598,2.5601,2.5616,2.5621,2.5622,2.5634,2.5629,2.563,2.563,2.5631,2.5649,2.5649,0,0,0,0,0,0,2.555,2.5554,2.558,2.5581,2.5567,2.5583,2.5586,2.5592,2.5606,2.5608,2.5601,2.5601,2.5619,2.5621,2.5623,2.5629,2.563,2.5631,2.5631,2.5649,2.5649,2.5649,0,0,0,0,0,0,2.555,2.5553,2.5579,2.5568,2.5572,2.5584,2.559,2.5592,2.5597,2.5608,2.561,2.5603,2.5619,2.5622,2.5629,2.563,2.5631,2.5632,2.5649,2.5649,2.5649,2.5642,0,0,0,0,0,0,2.5549,2.5552,2.5555,2.5568,2.5572,2.5586,2.559,2.5593,2.5598,2.5599,2.5611,2.5613,2.562,2.5628,2.563,2.5631,2.5633,2.5649,2.5649,2.5649,2.5642,2.5642,2.5641,0,0,0,0,0,2.5547,2.5551,2.5555,2.5558,2.5576,2.5586,2.5588,2.5597,2.5598,2.5601,2.5608,2.5612,2.563,2.5629,2.5631,2.5632,2.5649,2.5649,2.5649,2.5642,2.5642,2.5641,0,0,0,0,0,0,2.5537,2.5553,2.5557,2.5566,2.5575,2.5588,2.5591,2.5596,2.5604,2.5604,2.5614,2.5616,2.5623,2.5628,2.5627,2.5638,2.564,2.564,2.5634,2.5633,2.5633,2.5631,2.5633,0,0,0,0,0,2.5536,2.5544,2.5557,2.5564,2.5568,2.5579,2.5583,2.5589,2.5598,2.5602,2.561,2.5618,2.5625,2.5629,2.5637,2.5643,2.5645,2.5645,2.5645,2.5644,2.5644,2.5648,2.5648,2.5649,2.5649,2.5649,0,0,2.5533,2.5543,2.5548,2.5562,2.5569,2.5576,2.5582,2.5589,2.5594,2.5603,2.5611,2.5617,2.5626,2.5633,2.5637,2.5638,2.5645,2.5644,2.5644,2.5644,2.5648,2.5648,2.5648,2.5649,2.5649,2.5649,0,0,2.5533,2.5541,2.5547,2.5555,2.5566,2.5573,2.5575,2.5587,2.5592,2.56,2.5607,2.5613,2.5625,2.5631,2.5636,2.5638,2.5642,2.564,2.5637,2.5641,2.5641,2.5641,2.5641,2.5641,2.564,2.564,2.564,0,2.5528,2.554,2.555,2.5557,2.5563,2.5572,2.5578,2.5584,2.5597,2.56,2.5602,2.5617,2.5624,2.5633,2.5633,2.5637,2.5638,2.5638,2.564,2.564,2.564,2.5641,2.5641,2.564,2.564,2.564,2.564,0,2.5534,2.5542,2.5545,2.5558,2.5565,2.5571,2.5581,2.5586,2.5591,2.5598,2.5606,2.5614,2.5624,2.5626,2.5631,2.5635,2.5636,2.5638,2.5641,2.564,2.564,2.5641,2.5639,2.5639,2.5639,2.5639,0,0,2.5527,2.5546,2.5547,2.5553,2.5566,2.5572,2.5579,2.5588,2.5592,2.5601,2.5606,2.5616,2.5619,2.5624,2.563,2.5633,2.5633,2.5635,2.5636,2.5635,2.5639,2.5636,2.5637,2.5636,2.5636,2.5636,2.5638,0,2.5528,2.5542,2.5551,2.556,2.5567,2.5576,2.5581,2.5589,2.5596,2.5602,2.5609,2.5616,2.5619,2.5622,2.5626,2.5633,2.5634,2.5633,2.5641,2.5641,2.5639,2.5637,2.5635,2.5636,2.5638,2.5638,2.5638,0,2.5532,2.5541,2.5551,2.5564,2.5567,2.5572,2.5581,2.5588,2.5597,2.5601,2.5607,2.5613,2.562,2.5621,2.563,2.5629,2.5633,2.5637,2.5637,2.5638,2.564,2.5638,2.5636,2.5636,2.5639,2.5639,2.5639,0,2.5526,2.5541,2.5549,2.5554,2.5568,2.5572,2.5578,2.5587,2.5592,2.56,2.5603,2.5612,2.5616,2.5622,2.563,2.563,2.5638,2.564,2.5641,2.5641,2.5642,2.5642,2.5641,2.5645,2.5645,2.5645,2.5645,0,2.5527,2.5533,2.5547,2.5552,2.5558,2.5568,2.5574,2.5581,2.5589,2.5595,2.5602,2.5607,2.5617,2.5623,2.5628,2.5635,2.5637,2.564,2.5641,2.5639,2.5639,2.5642,2.5642,2.5645,2.5645,2.5645,2.5645,0,2.5522,2.5531,2.5541,2.5554,2.5557,2.5562,2.5572,2.5577,2.5584,2.5591,2.5593,2.5604,2.5611,2.5619,2.5629,2.5633,2.5639,2.5641,2.5636,2.5637,2.5638,2.5638,2.5639,2.5639,2.5642,2.5642,2.5642,0,2.5521,2.5526,2.554,2.5545,2.5551,2.5559,2.5564,2.5574,2.5579,2.559,2.5593,2.5601,2.5608,2.562,2.5628,2.5635,2.5638,2.5638,2.5639,2.5637,2.5638,2.5637,2.5638,2.5637,2.5637,2.5637,2.5637,0,2.552,2.5525,2.5533,2.5543,2.5549,2.5557,2.5565,2.5568,2.5579,2.5585,2.5593,2.5599,2.5609,2.5617,2.5626,2.5631,2.5635,2.5636,2.5637,2.5635,2.5632,2.5634,2.5635,2.5636,2.5636,2.5636,2.5637,2.5637,2.5517,2.5522,2.5533,2.5542,2.5549,2.5556,2.5561,2.5569,2.5576,2.5586,2.5591,2.5599,2.5608,2.562,2.5625,2.5631,2.5632,2.5633,2.5633,2.5634,2.5633,2.5631,2.5632,2.5632,2.5632,2.5632,2.5632,0,2.5516,2.5524,2.5532,2.5543,2.555,2.5554,2.5563,2.5569,2.5576,2.5584,2.5591,2.56,2.5608,2.5616,2.5624,2.5627,2.563,2.5629,2.5629,2.563,2.5631,2.563,2.5627,2.5627,2.5627,2.5627,2.5627,2.5627,2.5517,2.5525,2.5531,2.5542,2.5549,2.5558,2.5563,2.557,2.5576,2.5586,2.5593,2.5599,2.5607,2.5615,2.5622,2.5625,2.5627,2.5626,2.5629,2.563,2.563,2.5631,2.5629,2.5627,2.5627,2.5627,2.5627,2.5627]}]]